Home > Weather > Emmendingen > Past weeks

Flag for Germany Past Weather in Emmendingen, Baden-Württemberg, Germany — Yesterday and Last 2 Weeks

Now
59 °F

Partly sunny.


Feels Like: 56 °F
Forecast: 46 / 71 °F
Wind: 18 mph from South

Location: Lahr - CAN-AFB

Current Time: May 31, 2016 at 8:09:40 AM

Latest Report: May 31, 2016 at 7:50 AM


Visibility: N/A

Pressure: 29.80 "Hg

Humidity: 77%

Dew Point: 52 °F

Location of EmmendingenLocation

Past Weather in Emmendingen — Graph

°F

Emmendingen Temperature Yesterday

Maximum temperature yesterday: 63 °F (at 3:50 PM)
Minimum temperature yesterday: 57 °F (at 8:20 AM)
Average temperature yesterday: 61 °F

High & Low Weather Summary for the Past Weeks

 TemperatureHumidityPressure
High79 °F (May 27, 2:50 PM)100% (May 16, 8:20 PM)30.18 "Hg (May 16, 8:20 PM)
Low45 °F (May 16, 7:20 AM)33% (May 22, 4:20 PM)29.68 "Hg (May 30, 7:50 AM)
Average60 °F70%29.97 "Hg
* Reported May 15 8:50 PM — May 30 7:50 PM, Emmendingen, Weather by CustomWeather, © 2016

Note: Actual official high and low records may vary slightly from our data, if they occured in-between our weather recording intervals... More about our weather records

Advertising

Emmendingen Weather History for the Previous 24 Hours

Scroll right to see more
 ConditionsComfort  
Time TempWeatherWind HumidityBarometerVisibility
7:50 PM
Mon, May 30
63 °FScattered clouds.14 mph77%29.74 "HgN/A
7:20 PM63 °FPartly sunny.18 mph73%29.74 "HgN/A
6:50 PM63 °FLight rain. Broken clouds.18 mph73%29.74 "HgN/A
6:20 PM63 °FBroken clouds.21 mph77%29.71 "HgN/A
5:50 PM63 °FBroken clouds.20 mph77%29.71 "HgN/A
5:20 PM63 °FLight rain. Partly sunny.23 mph73%29.71 "HgN/A
4:50 PM63 °FLight rain. Partly sunny.22 mph77%29.71 "HgN/A
4:20 PM63 °FLight rain. Partly sunny.22 mph83%29.71 "HgN/A
3:50 PM63 °FLight rain. Broken clouds.21 mph83%29.71 "HgN/A
3:20 PM61 °FLight rain. Partly sunny.20 mph83%29.71 "HgN/A
2:50 PM61 °FLight rain. Partly sunny.21 mph88%29.71 "HgN/A
2:20 PM61 °FLight rain. Partly sunny.18 mph88%29.71 "HgN/A
1:50 PM61 °FLight rain. Partly sunny.18 mph88%29.71 "HgN/A
12:50 PM61 °FBroken clouds.17 mph88%29.68 "HgN/A
12:20 PM61 °FLight rain. Broken clouds.18 mph94%29.68 "HgN/A
11:50 AM61 °FLight rain. Broken clouds.18 mph94%29.68 "HgN/A
10:50 AM59 °FLight rain. Broken clouds.15 mph100%29.68 "HgN/A
10:20 AM59 °FLight rain. Partly sunny.17 mph100%29.68 "Hg4 mi
9:50 AM59 °FLight rain. Partly sunny.17 mph100%29.68 "HgN/A
9:20 AM59 °FLight rain. Partly sunny.16 mph100%29.68 "Hg6 mi
8:50 AM57 °FLight rain. Partly sunny.13 mph100%29.68 "Hg3 mi
8:20 AM57 °FLight rain. Broken clouds.13 mph100%29.68 "Hg3 mi
Weather by CustomWeather, © 2016

See weather overviewHow to use our weather pages